Skip Page Navigation
NASA JPL Caltech
NASA Logo - Jet Propulsion Laboratory + View the NASA Portal
+ Center for Near-Earth Object Studies
JPL Home Earth Solar System Stars & Galaxies Technology
JPL Solar System Dynamics
BODIES ORBITS EPHEMERIDES TOOLS PHYSICAL DATA DISCOVERY FAQ SITE MAP
JPL Small-Body Database Browser
Search: [ help ]  
146622 (2001 TX231)
Classification: Main-belt Asteroid          SPK-ID: 2146622
Ephemeris | Orbit Diagram | Orbital Elements | Mission Design | Physical Parameters | Discovery Circumstances | Close-Approach Data ]

[ show orbit diagram ]
Orbital Elements at Epoch 2459000.5 (2020-May-31.0) TDB
Reference: JPL 15 (heliocentric ecliptic J2000)
 Element Value Uncertainty (1-sigma)   Units 
e .09375967262318582 4.9874e-08  
a 2.856895197369341 1.7932e-08 au
q 2.58903363894524 1.5043e-07 au
i 1.615024167585082 4.1863e-06 deg
node 266.3789463771527 0.00024071 deg
peri 153.9526420372545 0.00024359 deg
M 280.6267658661492 3.6963e-05 deg
tp 2459389.376291042595
(2021-Jun-23.87629104)
0.00018223 TDB
period 1763.761629509179
4.83
1.6606e-05
4.546e-08
d
yr
n .2041092140666316 1.9217e-09 deg/d
Q 3.124756755793442 1.9613e-08 au
  Orbit Determination Parameters
   # obs. used (total)      326  
   data-arc span      6965 days (19.07 yr)  
   first obs. used      2001-10-11  
   last obs. used      2020-11-05  
   planetary ephem.      DE431  
   SB-pert. ephem.      SB431-N16  
   condition code      0  
   norm. resid. RMS      .58329  
   source      ORB  
   producer      Otto Matic  
   solution date      2020-Dec-18 04:54:57  

Additional Information
 Earth MOID = 1.60176 au 
 Jupiter MOID = 2.14655 au 
 T_jup = 3.296 
[ show covariance matrix ]

Ephemeris | Orbit Diagram | Orbital Elements | Mission Design | Physical Parameters | Discovery Circumstances | Close-Approach Data ]

Physical Parameter Table
Parameter Symbol Value Units Sigma Reference Notes
absolute magnitude H 16.2   n/a MPO412893  

146622 (2001 TX231)          Discovered 2001-Oct-15 by Spacewatch at Kitt Peak
Reference: 20070106/Numbers.arcLast Updated: 2007-01-09

[ show close-approach data ]
Ephemeris | Orbit Diagram | Orbital Elements | Mission Design | Physical Parameters | Discovery Circumstances | Close-Approach Data ]
ABOUT SSD CREDITS/AWARDS PRIVACY/COPYRIGHT GLOSSARY LINKS
FirstGov 2021-Jan-28 16:39 UT
(server date/time)  
NASA Home Page
Site Manager:   Ryan S. Park
Webmaster  Alan B. Chamberlin